GW4015 Weather Reports


time (UTC)temp
C
wind
direction
speed
KPH
gust
KPH
rain 1hr
cm
rain 24hr
cm
rain mn
cm
humidity
%
barometer
mb
20260504130337 7 284 14.5 24.1 0.00 0.00 0.00 66 1018.4
20260504120300 7 263 12.9 17.7 0.00 0.00 0.00 61 1018.6
20260504110224 7 267 4.8 11.3 0.00 0.00 0.00 61 1018.6
20260504100148 6 346 19.3 24.1 0.00 0.00 0.00 65 1018.5
20260504090111 7 10 16.1 25.7 0.00 0.00 0.00 64 1018.6
20260504081541 8 38 35.4 41.8 0.00 0.00 0.00 59 1017.6
20260504081037 8 41 48.3 51.5 0.00 0.00 0.00 58 1017.7
20260504080534 8 28 27.4 51.5 0.00 0.00 0.00 58 1017.5
20260504050346 12 54 45.1 59.5 0.00 0.00 0.00 37 1013.7
20260504045843 12 49 43.5 61.2 0.00 0.00 0.00 38 1013.6
20260504045338 12 47 54.7 61.2 0.00 0.00 0.00 38 1013.4
20260504044836 12 49 46.7 61.2 0.00 0.00 0.00 38 1013.2
20260504044333 13 43 32.2 61.2 0.00 0.00 0.00 40 1013.2
20260504043830 13 38 45.1 57.9 0.00 0.00 0.00 39 1012.8
20260504043327 13 40 38.6 53.1 0.00 0.00 0.00 38 1012.7
20260504042824 13 46 30.6 41.8 0.00 0.00 0.00 38 1012.4
20260504042320 13 35 30.6 41.8 0.00 0.00 0.00 38 1012.1
20260504041817 13 48 29.0 41.8 0.00 0.00 0.00 38 1012.0
20260504041313 13 37 25.7 38.6 0.00 0.00 0.00 38 1012.1
20260504040809 13 41 24.1 30.6 0.00 0.00 0.00 38 1011.9
20260504040307 13 41 30.6 37.0 0.00 0.00 0.00 38 1011.9
20260504035803 13 33 30.6 33.8 0.00 0.00 0.00 38 1011.8
20260504035300 13 50 17.7 32.2 0.00 0.00 0.00 37 1011.7
20260504034757 14 38 24.1 37.0 0.00 0.00 0.00 37 1011.5
20260504034255 14 45 30.6 33.8 0.00 0.00 0.00 36 1011.3
20260504033752 14 41 25.7 37.0 0.00 0.00 0.00 36 1011.3
20260504033249 15 39 27.4 37.0 0.00 0.00 0.00 36 1011.2
20260504032746 15 53 35.4 40.2 0.00 0.00 0.00 35 1011.1
20260504032243 15 44 33.8 40.2 0.00 0.00 0.00 35 1010.8
20260504031740 15 51 27.4 37.0 0.00 0.00 0.00 35 1010.9
20260504031237 15 45 30.6 43.5 0.00 0.00 0.00 35 1011.0
20260504030733 15 47 33.8 46.7 0.00 0.00 0.00 34 1011.0
20260504030230 15 45 32.2 45.1 0.00 0.00 0.00 34 1010.7
20260504025727 16 38 27.4 43.5 0.00 0.00 0.00 33 1010.8
20260504025224 16 37 37.0 43.5 0.00 0.00 0.00 33 1010.7
20260504024721 16 44 32.2 45.1 0.00 0.00 0.00 32 1010.5
20260504024217 16 40 30.6 41.8 0.00 0.00 0.00 30 1010.5
20260504023714 16 39 27.4 32.2 0.00 0.00 0.00 30 1010.7
20260504023210 17 44 29.0 32.2 0.00 0.00 0.00 29 1010.5
20260504022706 17 39 27.4 32.2 0.00 0.00 0.00 28 1010.7
20260504022203 17 38 20.9 29.0 0.00 0.00 0.00 27 1010.7
20260504021700 18 31 22.5 30.6 0.00 0.00 0.00 26 1010.5
20260504021157 18 26 14.5 19.3 0.00 0.00 0.00 23 1010.6
20260504020654 18 19 12.9 17.7 0.00 0.00 0.00 23 1010.5
20260504020149 18 16 14.5 16.1 0.00 0.00 0.00 22 1010.5
20260504015646 19 14 9.7 17.7 0.00 0.00 0.00 21 1010.5
20260504015137 20 3 14.5 22.5 0.00 0.00 0.00 21 1010.7
20260504014633 20 5 12.9 20.9 0.00 0.00 0.00 21 1010.6
20260504014130 20 7 20.9 24.1 0.00 0.00 0.00 20 1010.6
20260504013628 21 354 12.9 25.7 0.00 0.00 0.00 20 1010.7
20260504013124 21 358 16.1 24.1 0.00 0.00 0.00 19 1010.9
20260504012622 21 5 19.3 24.1 0.00 0.00 0.00 19 1010.7
20260504012120 21 359 14.5 24.1 0.00 0.00 0.00 19 1010.8
20260504011616 21 8 20.9 27.4 0.00 0.00 0.00 19 1010.8
20260504011113 21 357 20.9 30.6 0.00 0.00 0.00 19 1010.7
20260504010609 22 2 14.5 30.6 0.00 0.00 0.00 19 1010.7
20260504010105 22 343 25.7 32.2 0.00 0.00 0.00 19 1010.5
20260504005602 22 347 27.4 30.6 0.00 0.00 0.00 19 1010.8
20260504005059 22 350 24.1 35.4 0.00 0.00 0.00 19 1010.7
20260504004557 22 341 16.1 33.8 0.00 0.00 0.00 19 1010.8
20260504004054 22 326 20.9 32.2 0.00 0.00 0.00 19 1010.9
20260504003549 22 344 19.3 33.8 0.00 0.00 0.00 19 1010.9
20260504003046 22 335 25.7 33.8 0.00 0.00 0.00 19 1010.8
20260504002543 22 336 33.8 37.0 0.00 0.00 0.00 19 1010.9
20260504002041 22 352 25.7 29.0 0.00 0.00 0.00 19 1011.0
20260504001538 22 333 37.0 38.6 0.00 0.00 0.00 19 1011.1
20260504001034 22 326 27.4 37.0 0.00 0.00 0.00 19 1011.2
20260504000532 22 347 30.6 45.1 0.00 0.00 0.00 18 1011.1
20260504000029 22 317 35.4 45.1 0.00 0.00 0.00 19 1011.0
20260503235527 23 350 24.1 29.0 0.00 0.00 0.00 19 1011.1
20260503235024 22 347 27.4 40.2 0.00 0.00 0.00 19 1011.0
20260503234521 23 331 38.6 48.3 0.00 0.00 0.00 19 1011.1
20260503234020 22 321 19.3 29.0 0.00 0.00 0.00 19 1011.1
20260503233515 22 322 25.7 37.0 0.00 0.00 0.00 19 1011.3
20260503233012 22 4 19.3 27.4 0.00 0.00 0.00 19 1010.9
20260503232509 23 334 27.4 38.6 0.00 0.00 0.00 19 1011.1
20260503232006 22 320 35.4 43.5 0.00 0.00 0.00 19 1011.2
20260503231504 22 298 30.6 32.2 0.00 0.00 0.00 19 1011.1
20260503231000 22 324 17.7 45.1 0.00 0.00 0.00 19 1011.2
20260503230457 22 293 19.3 33.8 0.00 0.00 0.00 19 1011.2
20260503225954 22 306 30.6 41.8 0.00 0.00 0.00 19 1011.0
20260503225451 23 308 35.4 45.1 0.00 0.00 0.00 18 1011.3
20260503224946 22 323 30.6 32.2 0.00 0.00 0.00 19 1011.3
20260503224444 23 323 32.2 37.0 0.00 0.00 0.00 19 1011.3
20260503223942 22 303 17.7 30.6 0.00 0.00 0.00 19 1011.5
20260503223439 23 294 19.3 46.7 0.00 0.00 0.00 19 1011.6
20260503222934 22 304 17.7 29.0 0.00 0.00 0.00 19 1011.5
20260503222433 22 309 17.7 30.6 0.00 0.00 0.00 19 1011.6
20260503221931 22 342 22.5 33.8 0.00 0.00 0.00 19 1011.5
20260503221429 22 326 27.4 40.2 0.00 0.00 0.00 19 1011.8
20260503220926 23 277 30.6 45.1 0.00 0.00 0.00 18 1011.7
20260503220422 23 299 27.4 46.7 0.00 0.00 0.00 19 1011.8
20260503215919 22 284 24.1 30.6 0.00 0.00 0.00 19 1011.9
20260503215416 22 293 33.8 41.8 0.00 0.00 0.00 19 1011.9
20260503214914 22 299 25.7 33.8 0.00 0.00 0.00 19 1011.9
20260503214411 22 327 17.7 29.0 0.00 0.00 0.00 20 1011.9
20260503213909 22 296 16.1 33.8 0.00 0.00 0.00 20 1012.1
20260503213406 22 315 14.5 32.2 0.00 0.00 0.00 21 1012.0
20260503212903 22 301 16.1 32.2 0.00 0.00 0.00 20 1012.2
20260503212400 22 325 24.1 37.0 0.00 0.00 0.00 20 1012.2
20260503211857 22 320 30.6 38.6 0.00 0.00 0.00 20 1012.2
20260503211354 22 303 24.1 33.8 0.00 0.00 0.00 20 1012.4
20260503210849 22 328 24.1 37.0 0.00 0.00 0.00 20 1012.4
20260503210347 22 311 37.0 41.8 0.00 0.00 0.00 20 1012.7
20260503205842 22 357 12.9 27.4 0.00 0.00 0.00 21 1012.7
20260503205339 22 304 29.0 43.5 0.00 0.00 0.00 20 1012.9
20260503204835 21 330 16.1 30.6 0.00 0.00 0.00 21 1012.8
20260503204332 22 305 11.3 22.5 0.00 0.00 0.00 20 1012.9
20260503203829 22 259 24.1 27.4 0.00 0.00 0.00 20 1012.8
20260503203327 21 326 24.1 37.0 0.00 0.00 0.00 20 1012.9
20260503202824 21 356 27.4 33.8 0.00 0.00 0.00 20 1013.0
20260503202322 21 291 33.8 41.8 0.00 0.00 0.00 20 1013.1
20260503201820 21 294 22.5 33.8 0.00 0.00 0.00 20 1013.1
20260503201316 21 1 12.9 30.6 0.00 0.00 0.00 21 1013.3
20260503200814 21 276 12.9 25.7 0.00 0.00 0.00 21 1013.2
20260503200310 21 336 22.5 43.5 0.00 0.00 0.00 20 1013.3
20260503195807 21 272 17.7 17.7 0.00 0.00 0.00 21 1013.6
20260503195304 21 304 32.2 40.2 0.00 0.00 0.00 21 1013.6
20260503194801 22 346 29.0 33.8 0.00 0.00 0.00 19 1013.6
20260503194256 21 321 25.7 37.0 0.00 0.00 0.00 21 1013.7
20260503193753 21 316 16.1 24.1 0.00 0.00 0.00 21 1013.8
20260503193249 22 298 29.0 46.7 0.00 0.00 0.00 19 1013.8
20260503192745 21 347 20.9 30.6 0.00 0.00 0.00 20 1013.8
20260503192240 21 310 16.1 29.0 0.00 0.00 0.00 21 1013.8
20260503191737 20 313 20.9 43.5 0.00 0.00 0.00 20 1014.0
20260503191234 21 330 25.7 37.0 0.00 0.00 0.00 20 1013.9
20260503190731 21 282 20.9 33.8 0.00 0.00 0.00 20 1014.0
20260503190228 20 343 8.0 16.1 0.00 0.00 0.00 22 1014.1
20260503185725 20 315 16.1 24.1 0.00 0.00 0.00 22 1014.2
20260503185221 20 306 37.0 37.0 0.00 0.00 0.00 22 1014.2
20260503184715 21 331 24.1 25.7 0.00 0.00 0.00 21 1014.2
20260503184212 20 312 14.5 37.0 0.00 0.00 0.00 21 1014.4
20260503183709 21 314 22.5 29.0 0.00 0.00 0.00 21 1014.4
20260503183206 21 307 14.5 35.4 0.00 0.00 0.00 21 1014.4
20260503182704 20 315 16.1 27.4 0.00 0.00 0.00 22 1014.8
20260503182202 21 300 24.1 33.8 0.00 0.00 0.00 21 1014.3
20260503181658 21 306 20.9 35.4 0.00 0.00 0.00 21 1014.5
20260503181155 20 347 17.7 24.1 0.00 0.00 0.00 22 1014.7
20260503180652 21 293 17.7 29.0 0.00 0.00 0.00 22 1014.9
20260503180150 20 247 20.9 25.7 0.00 0.00 0.00 23 1014.5
20260503175647 20 266 24.1 38.6 0.00 0.00 0.00 21 1014.8
20260503175144 21 302 24.1 43.5 0.00 0.00 0.00 21 1015.0
20260503174640 20 287 14.5 32.2 0.00 0.00 0.00 23 1015.1
20260503174138 20 285 20.9 30.6 0.00 0.00 0.00 23 1015.0
20260503173632 21 305 32.2 38.6 0.00 0.00 0.00 23 1015.0
20260503173129 20 331 20.9 29.0 0.00 0.00 0.00 23 1015.1
20260503172627 20 319 27.4 35.4 0.00 0.00 0.00 23 1015.2
20260503172124 20 278 24.1 32.2 0.00 0.00 0.00 22 1015.2
20260503171620 20 325 17.7 30.6 0.00 0.00 0.00 22 1015.1
20260503171117 21 296 24.1 32.2 0.00 0.00 0.00 22 1015.1
20260503170615 21 343 29.0 30.6 0.00 0.00 0.00 21 1015.3
20260503170111 20 307 20.9 32.2 0.00 0.00 0.00 23 1015.4
20260503151000 15 251 14.5 25.7 0.00 0.00 0.00 48 1015.8
20260503150457 15 260 14.5 22.5 0.00 0.00 0.00 50 1016.0